Bellefontaine, OH

9:54 PM EDT on March 26, 2017 (GMT -0400)
Bellefontaine

Weather History for KEDJ - February, 2013

Change the Weather History Date:

Tuesday, February 19, 2013

  Actual Average (KDAY) Record (KDAY)
Temperature  
Mean Temperature 30 °F -  
Max Temperature 42 °F 40 °F 70 °F (1939)
Min Temperature 19 °F 24 °F -11 °F (1910)
Degree Days  
Heating Degree Days 34    
Moisture  
Dew Point 25 °F    
Average Humidity 85    
Maximum Humidity 100    
Minimum Humidity 69    
Precipitation  
Precipitation 0.05 in - - ()
Sea Level Pressure  
Sea Level Pressure 29.77 in    
Wind  
Wind Speed 21 mph (WSW)    
Max Wind Speed 28 mph    
Max Gust Speed 39 mph    
Visibility 6 miles    
Events      
Averages and records for this station are not official NWS values.
T = Trace of Precipitation, MM = Missing Value Source: NWS Daily Summary

Daily Weather History Graph

Daily Weather History Graph

Search for Another Location

Airport or City:

Trip Planner

Search our weather history database for the weather conditions in past years. The results will help you decide how hot, cold, wet, or windy it might be!

Date:

Astronomy

Feb. 19, 2013 Rise Set
Actual Time 7:23 AM EST 6:15 PM EST
Civil Twilight 6:55 AM EST 6:43 PM EST
Nautical Twilight 6:23 AM EST 7:15 PM EST
Astronomical Twilight 5:52 AM EST 7:46 PM EST
Moon 12:46 PM EST (2/19) 2:54 AM EST (2/19)
Length of Visible Light 11h 48m
Length of Day
10h 52m
Waxing Gibbous, 67% of the Moon is Illuminated
Feb 19
Waxing Gibbous
Feb 25
Full
Mar 4
Last Quarter
Mar 11
New
Mar 19
First Quarter

Hourly Weather History & Observations

Time (EST) Temp. Windchill Dew Point Humidity Pressure Visibility Wind Dir Wind Speed Gust Speed Precip Events Conditions
12:15 AM 42.8 °F 34.0 °F 39.2 °F 87% 29.66 in 10.0 mi South 20.7 mph 25.3 mph 0.01 in   Mostly Cloudy
12:35 AM 41.0 °F 32.2 °F 39.2 °F 93% 29.66 in 6.0 mi South 18.4 mph 27.6 mph 0.01 in   Mostly Cloudy
12:55 AM 41.0 °F 31.4 °F 39.2 °F 93% 29.64 in 10.0 mi South 21.9 mph 29.9 mph 0.02 in   Mostly Cloudy
1:15 AM 41.0 °F 31.1 °F 39.2 °F 93% 29.62 in 10.0 mi South 23.0 mph 32.2 mph 0.00 in   Overcast
1:35 AM 41.0 °F 30.2 °F 39.2 °F 93% 29.60 in 10.0 mi South 27.6 mph 34.5 mph 0.00 in   Overcast
1:55 AM 41.0 °F 31.4 °F 37.4 °F 87% 29.60 in 10.0 mi South 21.9 mph 29.9 mph 0.00 in   Overcast
2:15 AM 42.8 °F 33.8 °F 37.4 °F 81% 29.59 in 10.0 mi South 21.9 mph 26.5 mph 0.00 in   Overcast
2:35 AM 42.8 °F 33.1 °F 37.4 °F 81% 29.58 in 10.0 mi South 25.3 mph 33.4 mph 0.00 in   Overcast
2:55 AM 42.8 °F 32.7 °F 39.2 °F 87% 29.58 in 10.0 mi South 27.6 mph 38.0 mph 0.00 in   Overcast
3:15 AM 42.8 °F 33.3 °F 39.2 °F 87% 29.56 in 10.0 mi South 24.2 mph 33.4 mph 0.00 in   Overcast
3:35 AM 42.8 °F 34.0 °F 39.2 °F 87% 29.56 in 10.0 mi South 20.7 mph 36.8 mph 0.00 in   Overcast
3:55 AM 42.8 °F 33.5 °F 39.2 °F 87% 29.55 in 10.0 mi South 23.0 mph 32.2 mph 0.00 in   Overcast
4:15 AM 42.8 °F 33.8 °F 39.2 °F 87% 29.55 in 10.0 mi SSW 21.9 mph 33.4 mph 0.00 in   Overcast
4:35 AM 42.8 °F 33.1 °F 39.2 °F 87% 29.56 in 9.0 mi SW 25.3 mph 35.7 mph 0.00 in   Overcast
4:55 AM 33.8 °F 23.5 °F 32.0 °F 93% 29.60 in 2.5 mi West 16.1 mph 27.6 mph 0.01 in   Overcast
5:15 AM 32.0 °F 21.2 °F 32.0 °F 100% 29.61 in 2.5 mi WSW 16.1 mph - 0.00 in   Overcast
5:35 AM 32.0 °F 21.2 °F 32.0 °F 100% 29.62 in 1.0 mi WSW 16.1 mph - 0.01 in   Overcast
5:55 AM 32.0 °F 23.6 °F 32.0 °F 100% 29.63 in 1.0 mi WSW 10.4 mph - 0.02 in   Overcast
6:15 AM 32.0 °F 19.2 °F 32.0 °F 100% 29.64 in 7.0 mi West 23.0 mph 26.5 mph 0.00 in   Overcast
6:35 AM 32.0 °F 20.1 °F 32.0 °F 100% 29.65 in 5.0 mi West 19.6 mph 29.9 mph 0.00 in   Overcast
6:55 AM 32.0 °F 20.8 °F 32.0 °F 100% 29.67 in 10.0 mi WSW 17.3 mph 27.6 mph 0.00 in   Overcast
7:15 AM 30.2 °F 17.8 °F 30.2 °F 100% 29.68 in 10.0 mi WSW 19.6 mph 28.8 mph 0.00 in   Overcast
7:35 AM 30.2 °F 18.5 °F 28.4 °F 93% 29.69 in 10.0 mi WSW 17.3 mph 26.5 mph 0.00 in   Overcast
7:55 AM 28.4 °F 14.4 °F 24.8 °F 86% 29.71 in 3.0 mi WSW 23.0 mph 31.1 mph 0.00 in   Overcast
8:15 AM 28.4 °F 16.6 °F 26.6 °F 93% 29.73 in 10.0 mi WSW 16.1 mph - 0.00 in   Overcast
8:35 AM 28.4 °F 15.4 °F 26.6 °F 93% 29.73 in 7.0 mi WSW 19.6 mph 26.5 mph 0.00 in   Overcast
9:15 AM 26.6 °F 13.4 °F 23.0 °F 86% 29.73 in 6.0 mi WSW 18.4 mph 26.5 mph 0.00 in   Overcast
9:35 AM 28.4 °F 15.8 °F 23.0 °F 80% 29.74 in 9.0 mi WSW 18.4 mph - 0.00 in   Overcast
9:55 AM 28.4 °F 15.8 °F 23.0 °F 80% 29.74 in 5.0 mi WSW 18.4 mph 23.0 mph 0.00 in   Overcast
10:15 AM 28.4 °F 13.8 °F 21.2 °F 74% 29.74 in 3.0 mi WSW 25.3 mph 31.1 mph 0.00 in   Overcast
10:35 AM 26.6 °F 12.7 °F 23.0 °F 86% 29.76 in 0.8 mi WSW 20.7 mph 33.4 mph 0.00 in   Overcast
10:55 AM 26.6 °F 12.0 °F 23.0 °F 86% 29.76 in 1.8 mi WSW 23.0 mph 29.9 mph 0.00 in   Mostly Cloudy
11:15 AM 26.6 °F 12.4 °F 19.4 °F 74% 29.77 in 0.8 mi WSW 21.9 mph 39.1 mph 0.00 in   Overcast
11:35 AM 26.6 °F 12.7 °F 19.4 °F 74% 29.77 in 5.0 mi WSW 20.7 mph 28.8 mph 0.00 in   Overcast
11:55 AM 28.4 °F 13.5 °F 19.4 °F 69% 29.76 in 8.0 mi WSW 26.5 mph 33.4 mph 0.00 in   Overcast
12:15 PM 26.6 °F 11.4 °F 19.4 °F 74% 29.76 in 10.0 mi WSW 25.3 mph 32.2 mph 0.00 in   Overcast
12:35 PM 26.6 °F 12.4 °F 21.2 °F 80% 29.76 in 7.0 mi WSW 21.9 mph 27.6 mph 0.00 in   Overcast
12:55 PM 26.6 °F 11.1 °F 21.2 °F 80% 29.76 in 10.0 mi WSW 26.5 mph 32.2 mph 0.00 in   Overcast
1:15 PM 26.6 °F 10.8 °F 19.4 °F 74% 29.77 in 0.8 mi WSW 27.6 mph 35.7 mph 0.00 in   Overcast
1:35 PM 26.6 °F 11.1 °F 19.4 °F 74% 29.78 in 3.0 mi WSW 26.5 mph 35.7 mph 0.00 in   Overcast
1:55 PM 24.8 °F 10.0 °F 19.4 °F 80% 29.79 in 8.0 mi West 21.9 mph 32.2 mph 0.00 in   Overcast
2:15 PM 24.8 °F 10.0 °F 19.4 °F 80% 29.79 in 10.0 mi WSW 21.9 mph 32.2 mph 0.00 in   Overcast
2:35 PM 24.8 °F 11.9 °F 19.4 °F 80% 29.80 in 4.0 mi WSW 16.1 mph 25.3 mph 0.00 in   Scattered Clouds
2:55 PM 26.6 °F 12.7 °F 21.2 °F 80% 29.80 in 3.0 mi WSW 20.7 mph 31.1 mph 0.00 in   Partly Cloudy
3:15 PM 26.6 °F 13.1 °F 21.2 °F 80% 29.81 in 4.0 mi WSW 19.6 mph 28.8 mph 0.00 in   Partly Cloudy
3:35 PM 24.8 °F 9.0 °F 19.4 °F 80% 29.82 in 2.0 mi WSW 25.3 mph 33.4 mph 0.00 in   Scattered Clouds
3:50 PM 24.8 °F 8.7 °F 21.2 °F 86% 29.84 in 0.8 mi WSW 26.5 mph 31.1 mph 0.00 in   Mostly Cloudy
4:15 PM 23.0 °F 7.6 °F 17.6 °F 80% 29.86 in 1.8 mi WSW 21.9 mph 36.8 mph 0.00 in   Mostly Cloudy
4:35 PM 23.0 °F 6.0 °F 17.6 °F 80% 29.86 in 9.0 mi West 27.6 mph 33.4 mph 0.00 in   Scattered Clouds
4:55 PM 23.0 °F 9.2 °F 17.6 °F 80% 29.87 in 5.0 mi West 17.3 mph 29.9 mph 0.00 in   Partly Cloudy
5:15 PM 23.0 °F 6.9 °F 17.6 °F 80% 29.88 in 6.0 mi West 24.2 mph 29.9 mph 0.00 in   Scattered Clouds
5:35 PM 23.0 °F 8.3 °F 19.4 °F 86% 29.89 in 1.8 mi WSW 19.6 mph 25.3 mph 0.00 in   Mostly Cloudy
5:55 PM 21.2 °F 5.6 °F 19.4 °F 93% 29.91 in 0.5 mi West 20.7 mph 32.2 mph 0.00 in   Overcast
6:15 PM 21.2 °F 5.2 °F 15.8 °F 80% 29.92 in 0.8 mi West 21.9 mph 34.5 mph 0.00 in   Overcast
7:35 PM 21.2 °F 6.8 °F 15.8 °F 80% 29.96 in 7.0 mi West 17.3 mph 28.8 mph 0.00 in   Mostly Cloudy
7:55 PM 21.2 °F 7.3 °F 15.8 °F 80% 29.96 in 10.0 mi West 16.1 mph 27.6 mph 0.00 in   Mostly Cloudy
8:15 PM 21.2 °F 7.8 °F 15.8 °F 80% 29.96 in 5.0 mi West 15.0 mph 20.7 mph 0.00 in   Mostly Cloudy
8:35 PM 19.4 °F 4.1 °F 15.8 °F 86% 29.97 in 5.0 mi West 18.4 mph 27.6 mph 0.00 in   Mostly Cloudy
8:55 PM 19.4 °F 6.6 °F 15.8 °F 86% 29.98 in 2.5 mi West 12.7 mph 19.6 mph 0.00 in   Mostly Cloudy
9:15 PM 19.4 °F 6.0 °F 15.8 °F 86% 29.99 in 9.0 mi West 13.8 mph 24.2 mph 0.00 in   Mostly Cloudy
9:35 PM 19.4 °F 5.5 °F 14.0 °F 80% 29.99 in 9.0 mi West 15.0 mph 25.3 mph 0.00 in   Overcast
9:55 PM 19.4 °F 4.5 °F 14.0 °F 80% 29.99 in 7.0 mi West 17.3 mph 21.9 mph 0.00 in   Mostly Cloudy
10:15 PM 19.4 °F 6.0 °F 14.0 °F 80% 30.00 in 4.0 mi West 13.8 mph - 0.00 in   Mostly Cloudy
10:35 PM 19.4 °F 6.0 °F 14.0 °F 80% 30.00 in 5.0 mi West 13.8 mph 21.9 mph 0.00 in   Mostly Cloudy
10:50 PM 19.4 °F 6.0 °F 14.0 °F 80% 30.00 in 4.0 mi West 13.8 mph 21.9 mph 0.00 in   Mostly Cloudy
11:15 PM 19.4 °F 6.0 °F 15.8 °F 86% 30.00 in 5.0 mi West 13.8 mph - 0.00 in   Mostly Cloudy
11:35 PM 19.4 °F 5.5 °F 15.8 °F 86% 30.01 in 2.5 mi West 15.0 mph 19.6 mph 0.00 in   Mostly Cloudy
11:55 PM 19.4 °F 7.2 °F 14.0 °F 80% 30.01 in 10.0 mi West 11.5 mph - 0.00 in   Overcast